Simultaneous Nadir Overpasses (SNOs) Predictions

Prediction of SNOs between AQUA and METOP-B Satellite Orbit:

Table of predicted SNOs for the next 14.0 days since TLE Epoch: 12/7/2018
Index Date (AQUA) Time (AQUA) Lat,Lon (AQUA) SZA (AQUA ) Date (METOP-B) Time (METOP-B) Lat,Lon (METOP-B) SZA (METOP-B ) Distance(km) Time Diff (sec)
1 12/08/2018 00:28:28 73.87, 167.01 96.49 12/08/2018 00:27:54 73.85, 166.91 96.48 3.49 34
2 12/08/2018 01:17:55 -73.93, -25.50 83.44 12/08/2018 01:18:34 -73.92, -25.58 83.45 2.75 39
3 12/10/2018 20:02:42 73.87,-126.56 96.78 12/10/2018 20:02:17 73.90,-126.56 96.81 3.44 25
4 12/10/2018 20:52:09 -73.94, 40.92 83.15 12/10/2018 20:52:58 -73.93, 40.84 83.16 2.75 49
5 12/13/2018 14:47:21 -73.44, 133.17 83.46 12/13/2018 14:46:12 -73.41, 131.36 83.45 57.67 69
6 12/13/2018 15:36:57 73.89, -60.15 97.01 12/13/2018 15:36:42 73.90, -60.15 97.03 2.00 15
7 12/13/2018 16:26:24 -73.96, 107.33 82.92 12/13/2018 16:27:23 -73.94, 107.26 82.94 3.10 59
8 12/16/2018 10:21:43 -73.83,-161.21 82.90 12/16/2018 10:20:30 -73.76,-161.42 82.96 9.77 73
9 12/16/2018 11:11:12 73.90, 6.25 97.19 12/16/2018 11:11:07 73.90, 6.25 97.19 0.45 5
10 12/16/2018 12:00:39 -73.98, 173.73 82.74 12/16/2018 12:01:47 -73.99, 173.79 82.74 2.42 68
11 12/19/2018 05:55:57 -73.85, -94.83 82.78 12/19/2018 05:54:52 -73.86, -94.78 82.76 1.81 65
12 12/19/2018 06:45:25 73.88, 72.75 97.26 12/19/2018 06:45:31 73.90, 72.65 97.28 3.61 6




NCC Satellite Simultaneous Nadir Overpasses (SNOs) Prediction Service
